Location: Équennes
(49.7375°N, 1.9622°E)
Time: 22:39:01
(UTC+00:00)

RESURS DK-1 - Pass Details

Date: 28 January 2023
Orbit: 549 x 558 km, 69.9° (Epoch: 28 March)

Event Time Altitude Azimuth Distance (km) Brightness Sun altitude
Rises 16:55:37 0° 339° (NNW) 2,736 5.8 -3.1°
Enters shadow 17:02:11 - 48° (NE) 2,384 5.0 -4.1°
Exits shadow 17:33:49 -60° 128° (SE) 11,622 8.9 -8.9°
Reaches altitude 10° 18:36:06 10° 353° (N) 1,841 5.0 -18.7°
